Ambler, AK

2:47 AM AKDT on October 01, 2016 (GMT -0800)
Ambler

Weather History for PAFM - March, 2014

Change the Weather History Date:

Friday, March 28, 2014

  Actual Average Record
Temperature  
Mean Temperature 16 °F -  
Max Temperature 30 °F 9 °F 40 °F (1987)
Min Temperature 1 °F 0 °F -31 °F (1985)
Degree Days  
Heating Degree Days 50    
Moisture  
Dew Point 3 °F    
Average Humidity 66    
Maximum Humidity 92    
Minimum Humidity 40    
Precipitation  
Precipitation 0.00 in - - ()
Sea Level Pressure  
Sea Level Pressure 29.96 in    
Wind  
Wind Speed 2 mph (NE)    
Max Wind Speed 12 mph    
Max Gust Speed 17 mph    
Visibility 10 miles    
Events      
Averages and records for this station are not official NWS values.
T = Trace of Precipitation, MM = Missing Value Source: NWS Daily Summary

Daily Weather History Graph

Daily Weather History Graph

Search for Another Location

Airport or City:

Trip Planner

Search our weather history database for the weather conditions in past years. The results will help you decide how hot, cold, wet, or windy it might be!

Date:

Astronomy

Mar. 28, 2014 Rise Set
Actual Time 7:57 AM AKDT 9:16 PM AKDT
Civil Twilight 7:02 AM AKDT 10:12 PM AKDT
Nautical Twilight 5:50 AM AKDT 11:26 PM AKDT
Astronomical Twilight 4:07 AM AKDT 1:14 AM AKDT
Moon 7:28 AM AKDT (3/28) 6:46 PM AKDT (3/28)
Length of Visible Light 15h 10m
Length of Day
13h 18m
Waning Crescent, 5% of the Moon is Illuminated
Mar 28
Waning Crescent
Mar 30
New
Apr 7
First Quarter
Apr 14
Full
Apr 21
Last Quarter

Hourly Weather History & Observations

Time (AKDT) Temp. Windchill Dew Point Humidity Pressure Visibility Wind Dir Wind Speed Gust Speed Precip Events Conditions
12:16 AM 5.0 °F - -0.4 °F 78% 30.03 in 10.0 mi Calm Calm - N/A   Clear
12:36 AM 5.0 °F - 1.4 °F 85% 30.03 in 10.0 mi Calm Calm - N/A   Clear
12:56 AM 5.0 °F - 1.4 °F 85% 30.03 in 10.0 mi Calm Calm - N/A   Clear
1:16 AM 5.0 °F - -0.4 °F 78% 30.03 in 10.0 mi Calm Calm - N/A   Clear
1:36 AM 3.2 °F - -0.4 °F 85% 30.03 in 10.0 mi Calm Calm - N/A   Clear
1:56 AM 3.2 °F - -0.4 °F 85% 30.04 in 10.0 mi Calm Calm - N/A   Clear
2:16 AM 3.2 °F - 1.4 °F 92% 30.04 in 10.0 mi Calm Calm - N/A   Clear
2:36 AM 5.0 °F - 1.4 °F 85% 30.04 in 10.0 mi Calm Calm - N/A   Clear
2:56 AM 1.4 °F - -2.2 °F 85% 30.04 in 10.0 mi Calm Calm - N/A   Clear
3:16 AM 3.2 °F - 1.4 °F 92% 30.04 in 10.0 mi Calm Calm - N/A   Clear
3:36 AM 3.2 °F - -2.2 °F 78% 30.04 in 10.0 mi Calm Calm - N/A   Clear
3:56 AM 3.2 °F - 1.4 °F 92% 30.04 in 10.0 mi Calm Calm - N/A   Clear
4:16 AM 5.0 °F - 1.4 °F 85% 30.04 in 10.0 mi Calm Calm - N/A   Clear
4:36 AM 3.2 °F - -0.4 °F 85% 30.04 in 10.0 mi Calm Calm - N/A   Clear
4:56 AM 3.2 °F - -0.4 °F 85% 30.03 in 10.0 mi Calm Calm - N/A   Clear
5:16 AM 3.2 °F - -0.4 °F 85% 30.04 in 10.0 mi Calm Calm - N/A   Clear
5:36 AM 3.2 °F - -2.2 °F 78% 30.03 in 10.0 mi Calm Calm - N/A   Clear
5:56 AM 3.2 °F - -0.4 °F 85% 30.03 in 10.0 mi Calm Calm - N/A   Partly Cloudy
6:16 AM 3.2 °F - -0.4 °F 85% 30.03 in 10.0 mi Calm Calm - N/A   Clear
6:36 AM 3.2 °F - 1.4 °F 92% 30.03 in 10.0 mi Calm Calm - N/A   Clear
6:56 AM 3.2 °F - -2.2 °F 78% 30.02 in 10.0 mi Calm Calm - N/A   Clear
7:16 AM 1.4 °F -6.2 °F -2.2 °F 85% 30.02 in 10.0 mi ENE 3.5 mph - N/A   Clear
7:36 AM 3.2 °F - -0.4 °F 85% 30.01 in 10.0 mi Calm Calm - N/A   Clear
7:56 AM 3.2 °F - 1.4 °F 92% 30.01 in 10.0 mi Calm Calm - N/A   Clear
8:16 AM 3.2 °F - -0.4 °F 85% 30.01 in 10.0 mi Calm Calm - N/A   Clear
8:36 AM 3.2 °F - -0.4 °F 85% 30.01 in 10.0 mi Calm Calm - N/A   Clear
8:56 AM 3.2 °F - -0.4 °F 85% 30.01 in 10.0 mi Calm Calm - N/A   Clear
9:16 AM 3.2 °F - -0.4 °F 85% 30.02 in 10.0 mi Calm Calm - N/A   Clear
9:36 AM 5.0 °F - 1.4 °F 85% 30.01 in 10.0 mi Calm Calm - N/A   Clear
9:56 AM 6.8 °F - 3.2 °F 85% 30.00 in 10.0 mi Calm Calm - N/A   Clear
10:16 AM 8.6 °F - 3.2 °F 79% 30.00 in 10.0 mi Calm Calm - N/A   Clear
10:36 AM 6.8 °F - 5.0 °F 92% 30.00 in 10.0 mi Calm Calm - N/A   Clear
10:56 AM 8.6 °F - 3.2 °F 79% 30.00 in 10.0 mi Calm Calm - N/A   Clear
11:16 AM 8.6 °F - 5.0 °F 85% 30.00 in 10.0 mi Calm Calm - N/A   Clear
11:36 AM 12.2 °F - 10.4 °F 92% 29.99 in 10.0 mi Calm Calm - N/A   Clear
11:56 AM 14.0 °F - 6.8 °F 73% 29.99 in 10.0 mi Calm Calm - N/A   Clear
12:16 PM 17.6 °F - 5.0 °F 58% 29.99 in 10.0 mi Calm Calm - N/A   Clear
12:36 PM 19.4 °F 14.3 °F 5.0 °F 54% 29.98 in 10.0 mi East 3.5 mph - N/A   Clear
12:56 PM 21.2 °F 16.4 °F 6.8 °F 54% 29.98 in 10.0 mi East 3.5 mph - N/A   Clear
1:16 PM 21.2 °F 16.4 °F 6.8 °F 54% 29.98 in 10.0 mi South 3.5 mph - N/A   Clear
1:36 PM 19.4 °F - 6.8 °F 58% 29.97 in 10.0 mi Calm Calm - N/A   Clear
1:56 PM 21.2 °F - 6.8 °F 54% 29.97 in 10.0 mi Calm Calm - N/A   Clear
2:16 PM 21.2 °F 16.4 °F 8.6 °F 58% 29.96 in 10.0 mi South 3.5 mph - N/A   Clear
2:36 PM 26.6 °F 19.1 °F 8.6 °F 47% 29.95 in 10.0 mi NE 6.9 mph - N/A   Clear
2:56 PM 28.4 °F 22.2 °F 8.6 °F 43% 29.95 in 10.0 mi ENE 5.8 mph - N/A   Clear
3:16 PM 28.4 °F 22.2 °F 8.6 °F 43% 29.95 in 10.0 mi NNE 5.8 mph - N/A   Clear
3:36 PM 28.4 °F 21.2 °F 8.6 °F 43% 29.94 in 10.0 mi NE 6.9 mph - N/A   Clear
3:56 PM 30.2 °F 24.3 °F 8.6 °F 40% 29.93 in 10.0 mi NNE 5.8 mph - N/A   Clear
4:16 PM 30.2 °F 26.7 °F 8.6 °F 40% 29.93 in 10.0 mi NNE 3.5 mph - N/A   Clear
4:36 PM 30.2 °F 23.4 °F 8.6 °F 40% 29.92 in 10.0 mi NE 6.9 mph - N/A   Clear
4:56 PM 30.2 °F 22.6 °F 8.6 °F 40% 29.91 in 10.0 mi NNE 8.1 mph - N/A   Clear
5:16 PM 30.2 °F 23.4 °F 8.6 °F 40% 29.91 in 10.0 mi NNE 6.9 mph - N/A   Clear
5:36 PM 30.2 °F 24.3 °F 8.6 °F 40% 29.90 in 10.0 mi NNE 5.8 mph - N/A   Clear
5:56 PM 28.4 °F 20.4 °F 8.6 °F 43% 29.89 in 10.0 mi NNE 8.1 mph - N/A   Clear
6:16 PM 28.4 °F 19.1 °F 6.8 °F 40% 29.89 in 10.0 mi NNE 10.4 mph - N/A   Clear
6:36 PM 28.4 °F 19.1 °F 6.8 °F 40% 29.88 in 10.0 mi NNE 10.4 mph - N/A   Clear
6:56 PM 28.4 °F 18.5 °F 6.8 °F 40% 29.87 in 10.0 mi NNE 11.5 mph - N/A   Clear
7:16 PM 26.6 °F 16.2 °F 6.8 °F 43% 29.87 in 10.0 mi NNE 11.5 mph 16.1 mph N/A   Clear
7:36 PM 26.6 °F 16.8 °F 5.0 °F 40% 29.86 in 10.0 mi NNE 10.4 mph - N/A   Clear
7:56 PM 24.8 °F 16.1 °F 6.8 °F 46% 29.86 in 10.0 mi NNE 8.1 mph - N/A   Clear
8:16 PM 23.0 °F 13.1 °F 3.2 °F 43% 29.86 in 10.0 mi NNE 9.2 mph - N/A   Clear
8:36 PM 21.2 °F 10.9 °F 3.2 °F 46% 29.85 in 10.0 mi NNE 9.2 mph - N/A   Clear
8:56 PM 21.2 °F 11.7 °F 3.2 °F 46% 29.85 in 10.0 mi NNE 8.1 mph 16.1 mph N/A   Clear
9:16 PM 21.2 °F 10.9 °F 3.2 °F 46% 29.85 in 10.0 mi NNE 9.2 mph - N/A   Clear
9:36 PM 19.4 °F 9.5 °F 3.2 °F 49% 29.85 in 10.0 mi NNE 8.1 mph - N/A   Clear
9:56 PM 19.4 °F 8.6 °F 3.2 °F 49% 29.85 in 10.0 mi NE 9.2 mph - N/A   Clear
10:16 PM 17.6 °F 5.7 °F 3.2 °F 53% 29.85 in 10.0 mi NNE 10.4 mph 16.1 mph N/A   Clear
10:36 PM 17.6 °F 6.4 °F 3.2 °F 53% 29.85 in 10.0 mi NNE 9.2 mph - N/A   Clear
10:56 PM 17.6 °F 5.7 °F 3.2 °F 53% 29.85 in 10.0 mi NNE 10.4 mph 17.3 mph N/A   Clear
11:16 PM 17.6 °F 7.3 °F 3.2 °F 53% 29.85 in 10.0 mi NNE 8.1 mph 16.1 mph N/A   Clear
11:36 PM 17.6 °F 5.0 °F 3.2 °F 53% 29.84 in 10.0 mi NNE 11.5 mph 17.3 mph N/A   Clear
11:56 PM 17.6 °F 5.0 °F 3.2 °F 53% 29.85 in 10.0 mi NNE 11.5 mph 17.3 mph N/A   Clear